TimePDT,TemperatureF,Dew PointF,Humidity,Sea Level PressureIn,VisibilityMPH,Wind Direction,Wind SpeedMPH,Gust SpeedMPH,PrecipitationIn,Events,Conditions,WindDirDegrees,DateUTC
12:56 AM,59.9,20.1,22,29.84,10.0,Calm,Calm,-,N/A,,Clear,0,2012-11-02 07:56:00
1:56 AM,55.9,22.1,27,29.85,10.0,South,8.1,-,N/A,,Clear,170,2012-11-02 08:56:00
2:56 AM,54.0,22.1,29,29.85,10.0,South,9.2,-,N/A,,Clear,170,2012-11-02 09:56:00
3:56 AM,54.0,23.0,30,29.84,10.0,SSE,8.1,-,N/A,,Clear,160,2012-11-02 10:56:00
4:56 AM,52.0,22.1,31,29.86,10.0,Calm,Calm,-,N/A,,Clear,0,2012-11-02 11:56:00
5:56 AM,50.9,22.1,32,29.88,10.0,SSE,8.1,-,N/A,,Clear,160,2012-11-02 12:56:00
6:56 AM,50.0,24.1,36,29.90,10.0,Calm,Calm,-,N/A,,Clear,0,2012-11-02 13:56:00
7:56 AM,52.9,24.1,33,29.91,10.0,South,11.5,-,N/A,,Clear,180,2012-11-02 14:56:00
8:56 AM,61.0,27.1,28,29.93,10.0,Calm,Calm,-,N/A,,Clear,0,2012-11-02 15:56:00
9:56 AM,68.0,29.1,23,29.93,10.0,Calm,Calm,-,N/A,,Clear,0,2012-11-02 16:56:00
10:56 AM,70.9,25.2,18,29.94,10.0,NNE,6.9,-,N/A,,Clear,20,2012-11-02 17:56:00
11:56 AM,70.9,25.2,18,29.92,10.0,North,4.6,-,N/A,,Clear,350,2012-11-02 18:56:00
12:56 PM,72.9,25.2,17,29.90,10.0,North,3.5,-,N/A,,Clear,360,2012-11-02 19:56:00
1:56 PM,75.9,25.2,15,29.88,10.0,Calm,Calm,-,N/A,,Clear,0,2012-11-02 20:56:00
2:56 PM,77.0,25.2,15,29.86,10.0,Calm,Calm,-,N/A,,Clear,0,2012-11-02 21:56:00
3:56 PM,75.9,24.1,15,29.86,10.0,Calm,Calm,-,N/A,,Clear,0,2012-11-02 22:56:00
4:56 PM,75.2,24.8,15,29.96,10.0,Calm,Calm,-,N/A,,Clear,0,2012-11-02 23:56:00
5:56 PM,70.9,29.1,21,29.87,10.0,Calm,Calm,-,N/A,,Clear,0,2012-11-03 00:56:00
6:56 PM,63.9,30.0,28,29.90,10.0,Calm,Calm,-,N/A,,Clear,0,2012-11-03 01:56:00
7:56 PM,59.9,28.0,30,29.91,10.0,Calm,Calm,-,N/A,,Clear,0,2012-11-03 02:56:00
8:56 PM,59.0,30.0,33,29.92,10.0,SSE,8.1,-,N/A,,Clear,160,2012-11-03 03:56:00
9:56 PM,56.8,28.0,33,29.93,10.0,South,6.9,-,N/A,,Clear,170,2012-11-03 04:56:00
10:56 PM,56.8,26.1,31,29.92,10.0,South,9.2,-,N/A,,Clear,190,2012-11-03 05:56:00
11:56 PM,57.9,25.2,28,29.92,10.0,South,11.5,-,N/A,,Clear,190,2012-11-03 06:56:00